This demonstration page uses our WeatherBlox Daily Observations layout. Learn more.

Left ArrowRight Arrow

Hourly Observations for August 21, 2022

Temp ( °F °C ) Dew Point ( °F °C ) Humidity (%) Winds ( mph kmh ) Pressure ( in mb ) Visibility ( mi km ) Precip ( " mm )
12:15 am 00:15 Clear 60 15.6 56 13.6 88 88 ESE 6 9 30.08 1018 10 16 0.00 0.00
12:35 am 00:35 Clear 59 15 56 13.4 90 90 ESE 6 9 30.08 1019 10 16 0.00 0.00
12:55 am 00:55 Clear 59 15 56 13.1 88 88 SE 5 7 30.09 1019 10 16 0.00 0.00
1:15 am 01:15 Clear 59 15.1 55 13 87 87 SSE 5 7 30.09 1019 10 16 0.00 0.00
1:35 am 01:35 Clear 58 14.4 55 12.7 90 90 SE 3 6 30.09 1019 10 16 0.00 0.00
1:55 am 01:55 Clear 60 15.4 56 13.3 87 87 S 3 6 30.09 1019 10 16 0.00 0.00
2:15 am 02:15 Clear 59 14.9 56 13.1 89 89 SSW 3 6 30.09 1019 10 16 0.00 0.00
2:35 am 02:35 Clear 58 14.3 55 12.7 90 90 S 3 6 30.10 1019 10 16 0.00 0.00
2:55 am 02:55 Clear 57 13.9 54 12.2 89 89 SE 6 9 30.10 1019 10 16 0.00 0.00
3:15 am 03:15 Clear 57 14.1 54 12.4 89 89 Calm 30.10 1019 10 16 0.00 0.00
3:35 am 03:35 Clear 58 14.7 55 13 90 90 SSE 3 6 30.09 1019 10 16 0.00 0.00
3:55 am 03:55 Clear 60 15.4 56 13.2 87 87 SSE 3 6 30.09 1019 10 16 0.00 0.00
4:15 am 04:15 Clear 58 14.7 55 12.7 88 88 Calm 30.09 1019 10 16 0.00 0.00
4:35 am 04:35 Clear 57 13.9 55 12.6 92 92 Calm 30.10 1019 10 16 0.00 0.00
4:55 am 04:55 Clear 58 14.5 54 12.2 86 86 Calm 30.09 1019 10 16 0.00 0.00
5:15 am 05:15 Clear 58 14.4 54 12.2 87 87 Calm 30.09 1019 10 16 0.00 0.00
5:35 am 05:35 Clear 58 14.2 54 12.2 88 88 Calm 30.10 1019 10 16 0.00 0.00
5:55 am 05:55 Clear 57 13.9 55 12.5 91 91 Calm 30.10 1019 10 16 0.00 0.00
6:15 am 06:15 Clear 56 13.2 53 11.7 91 91 Calm 30.11 1020 10 16 0.00 0.00
6:35 am 06:35 Clear 55 12.9 53 11.9 94 94 Calm 30.12 1020 10 16 0.00 0.00
6:55 am 06:55 Sunny 54 12.2 52 11.1 93 93 Calm 30.13 1020 10 16 0.00 0.00
7:15 am 07:15 Sunny 55 12.7 53 11.6 93 93 Calm 30.13 1020 10 16 0.00 0.00
7:35 am 07:35 Sunny 55 12.7 53 11.6 93 93 Calm 30.13 1020 10 16 0.00 0.00
7:55 am 07:55 Sunny 59 14.8 55 13 89 89 Calm 30.12 1020 10 16 0.00 0.00
8:15 am 08:15 Sunny 61 15.9 57 13.9 88 88 Calm 30.11 1020 10 16 0.00 0.00
8:35 am 08:35 Sunny 64 17.5 58 14.6 83 83 Calm 30.10 1019 10 16 0.00 0.00
8:55 am 08:55 Sunny 66 18.8 59 14.9 78 78 Calm 30.10 1019 10 16 0.00 0.00
9:15 am 09:15 Sunny 68 19.8 59 15 74 74 Calm 30.09 1019 10 16 0.00 0.00
9:35 am 09:35 Sunny 69 20.5 60 15.3 72 72 SE 3 6 30.08 1019 10 16 0.00 0.00
9:55 am 09:55 Sunny 70 21.3 59 14.9 67 67 SSE 3 6 30.08 1019 10 16 0.00 0.00
10:15 am 10:15 Sunny 71 21.8 60 15.3 67 67 S 6 9 30.08 1019 10 16 0.00 0.00
10:35 am 10:35 Sunny 73 22.5 59 15.1 63 63 SSE 6 9 30.08 1018 10 16 0.00 0.00
10:55 am 10:55 Sunny 74 23.4 59 15 59 59 S 6 9 30.07 1018 10 16 0.00 0.00
11:15 am 11:15 Sunny 74 23.4 59 15 59 59 SSE 3 6 30.07 1018 10 16 0.00 0.00
11:35 am 11:35 Sunny 76 24.3 58 14.3 54 54 SE 5 7 30.06 1018 10 16 0.00 0.00
11:55 am 11:55 Sunny 76 24.5 57 13.8 51 51 SSE 6 9 30.05 1018 10 16 0.00 0.00
12:15 pm 12:15 Sunny 77 25.1 58 14.7 52 52 SSE 8 13 30.05 1017 10 16 0.00 0.00
12:35 pm 12:35 Sunny 78 25.5 59 14.9 52 52 S 6 9 30.03 1017 10 16 0.00 0.00
12:55 pm 12:55 Sunny 78 25.7 58 14.5 50 50 SE 8 13 30.03 1017 10 16 0.00 0.00
1:15 pm 13:15 Sunny 79 26.1 58 14.6 49 49 E 7 11 30.02 1017 10 16 0.00 0.00
1:35 pm 13:35 Sunny 80 26.7 59 14.9 48 48 E 7 11 30.01 1016 10 16 0.00 0.00
1:55 pm 13:55 Sunny 81 27.1 59 14.8 47 47 ESE 7 11 30.01 1016 10 16 0.00 0.00
2:15 pm 14:15 Sunny 81 27 58 14.6 47 47 ESE 6 9 30.00 1016 10 16 0.00 0.00
2:35 pm 14:35 Sunny 81 27 58 14.5 46 46 ESE 3 6 30.00 1016 10 16 0.00 0.00
2:55 pm 14:55 Sunny 82 27.5 58 14.7 46 46 ESE 6 9 29.99 1015 10 16 0.00 0.00
3:15 pm 15:15 Sunny 82 27.6 58 14.7 45 45 E 7 11 29.99 1015 10 16 0.00 0.00
3:35 pm 15:35 Sunny 82 27.9 59 15.1 46 46 E 6 9 29.98 1015 10 16 0.00 0.00
3:55 pm 15:55 Sunny 83 28.1 59 15.2 45 45 NE 5 7 29.97 1015 10 16 0.00 0.00
4:15 pm 16:15 Sunny 82 27.8 58 14.7 45 45 ENE 5 7 29.98 1015 10 16 0.00 0.00
4:35 pm 16:35 Sunny 83 28.2 59 15 45 45 ESE 6 9 29.96 1015 10 16 0.00 0.00
4:50 pm 16:50 Sunny 83 28.3 59 15.2 45 45 E 8 13 29.95 1014 10 16 0.00 0.00
5:15 pm 17:15 Sunny 83 28.1 59 14.9 45 45 ESE 6 9 29.95 1014 10 16 0.00 0.00
5:35 pm 17:35 Sunny 82 27.9 59 14.8 45 45 ESE 8 13 29.95 1014 10 16 0.00 0.00
5:55 pm 17:55 Sunny 82 27.6 58 14.5 45 45 E 6 9 29.96 1014 10 16 0.00 0.00
6:15 pm 18:15 Sunny 82 27.6 58 14.4 44 44 E 8 13 29.94 1014 10 16 0.00 0.00
6:35 pm 18:35 Sunny 81 27.2 58 14.7 46 46 E 7 11 29.95 1014 10 16 0.00 0.00
6:55 pm 18:55 Sunny 81 27 58 14.7 47 47 E 7 11 29.95 1014 10 16 0.00 0.00
7:15 pm 19:15 Sunny 80 26.4 60 15.6 51 51 E 7 11 29.95 1014 10 16 0.00 0.00
7:35 pm 19:35 Sunny 78 25.5 60 15.7 55 55 E 7 11 29.96 1015 10 16 0.00 0.00
7:55 pm 19:55 Sunny 76 24.2 62 16.5 62 62 E 6 9 29.97 1015 10 16 0.00 0.00
8:15 pm 20:15 Sunny 73 22.6 61 16.3 68 68 E 7 11 29.98 1015 10 16 0.00 0.00
8:35 pm 20:35 Clear 70 21.2 62 16.5 75 75 E 7 11 30.00 1016 10 16 0.00 0.00
8:55 pm 20:55 Clear 68 20.1 62 16.5 80 80 E 7 11 30.02 1016 10 16 0.00 0.00
9:15 pm 21:15 Clear 67 19.3 61 16.2 82 82 ESE 7 11 30.03 1017 10 16 0.00 0.00
9:35 pm 21:35 Clear 66 18.7 61 16.1 85 85 ESE 8 13 30.04 1017 10 16 0.00 0.00
9:55 pm 21:55 Clear 65 18.4 60 15.8 85 85 ESE 8 13 30.05 1018 10 16 0.00 0.00
10:15 pm 22:15 Clear 66 18.7 60 15.7 83 83 SE 8 13 30.05 1018 10 16 0.00 0.00
10:35 pm 22:35 Clear 64 17.9 60 15.6 86 86 SE 6 9 30.06 1018 10 16 0.00 0.00
10:55 pm 22:55 Clear 64 17.5 60 15.5 88 88 SE 7 11 30.06 1018 10 16 0.00 0.00
11:15 pm 23:15 Clear 63 17 59 15.1 89 89 SE 7 11 30.07 1018 10 16 0.00 0.00
11:35 pm 23:35 Clear 61 16 58 14.5 91 91 SE 5 7 30.08 1019 10 16 0.00 0.00
11:55 pm 23:55 Clear 60 15.6 57 14.1 91 91 SE 6 9 30.08 1019 10 16 0.00 0.00

Powered by AerisWeather